Theta_e
344 343 343 343 342 343 343 343 344 345 345 344 344 344 344 345 345 345 345 346 346 345 344 344 343 343 342 343 345 345 345 346 345 344 343 344 345 347 347 348 347 346 347 347 345 342 339 336 332 328 328 328 327 326 326 324 321 321 325 330 333 335 334 335 335 333 332 331 331 332 331 332 334 335 336 336 336 337 337 336 337 337 337 338 338
346 345 344 344 344 344 344 344 346 346 346 346 346 346 345 345 345 345 345 344 343 343 343 343 343 342 342 342 343 344 344 344 344 344 344 344 346 347 348 349 347 348 348 346 343 340 337 333 329 329 330 328 325 323 321 320 322 325 329 331 333 333 333 333 333 332 333 333 329 329 331 332 334 336 336 335 334 335 335 335 335 335 335 335 336
347 345 345 345 345 345 345 345 346 347 346 346 346 347 347 346 346 346 345 344 342 341 342 342 342 342 342 342 343 343 344 344 345 345 345 346 347 348 348 348 347 349 348 345 342 339 336 332 330 331 329 326 323 321 320 322 325 328 329 330 331 332 332 332 331 331 332 333 329 332 334 334 336 337 335 333 333 334 335 333 333 332 332 332 333
346 345 345 345 346 346 346 346 346 347 347 347 347 347 347 347 346 346 344 344 342 341 340 340 341 342 343 344 344 345 346 346 347 346 346 347 347 347 347 347 348 349 348 344 341 338 335 332 331 330 327 323 321 321 322 324 326 327 329 330 331 332 332 330 330 329 330 331 331 334 334 335 339 336 332 335 336 333 334 333 332 331 331 331 331
345 345 345 345 346 347 347 347 347 347 347 347 347 346 347 347 346 345 344 344 343 340 339 340 343 345 346 347 348 348 348 346 347 346 345 345 345 345 346 347 349 349 347 344 341 337 334 331 330 328 323 320 321 322 324 325 326 328 329 330 330 331 330 329 330 330 330 331 332 335 336 337 340 335 333 337 335 331 333 332 330 329 329 329 328
344 345 345 346 346 346 347 347 347 348 347 347 347 346 347 347 347 346 344 343 342 340 341 343 346 348 348 349 348 348 347 345 344 344 344 344 344 344 346 348 349 348 346 343 339 334 331 331 329 325 320 320 322 323 324 325 326 328 330 331 331 331 330 329 331 330 329 330 330 332 334 335 337 335 335 336 332 330 331 330 328 326 326 324 322
345 344 345 346 346 346 346 346 347 347 347 347 346 346 346 347 347 346 344 343 342 342 343 345 347 348 348 348 347 346 345 344 343 343 344 344 344 344 347 348 347 346 344 340 335 332 331 331 326 320 318 320 322 324 325 325 326 329 331 331 331 331 331 330 329 329 329 329 328 329 330 332 332 334 335 335 334 332 329 329 327 323 321 319 318
345 344 345 345 345 345 345 345 346 346 346 346 346 346 346 346 347 347 346 345 344 344 345 345 346 347 347 348 348 347 346 345 343 344 345 345 345 346 347 346 344 342 339 335 332 332 331 328 322 317 318 320 322 325 325 324 326 329 331 331 331 332 332 330 328 328 328 328 328 328 328 328 328 329 332 334 335 333 330 330 327 322 320 318 316
344 343 344 345 345 345 344 344 345 346 346 346 345 345 345 346 347 347 347 346 345 345 345 346 346 347 347 348 348 348 347 346 345 346 345 345 346 347 345 343 341 338 334 332 331 331 328 323 318 317 318 321 324 326 326 325 327 329 331 331 332 333 331 330 329 328 328 328 328 328 327 326 326 326 327 330 333 332 330 329 326 323 322 319 316
344 343 343 343 344 344 344 344 344 345 346 345 345 345 345 346 346 347 347 347 346 346 346 347 347 347 347 347 348 348 348 347 345 345 345 345 347 344 340 338 337 333 330 330 329 327 323 319 317 317 320 323 325 327 326 326 328 330 331 332 332 332 330 329 329 328 327 327 327 327 326 325 326 327 328 329 331 330 329 329 327 324 323 321 318
344 344 343 343 344 344 344 344 344 344 345 345 345 345 345 345 346 347 347 346 347 346 346 347 347 347 346 345 346 346 346 345 344 344 344 345 343 337 332 333 332 328 327 327 325 322 319 318 317 318 322 325 326 327 326 326 327 327 330 331 331 330 329 329 327 327 326 326 326 326 326 325 325 326 328 328 329 330 330 331 329 325 322 322 320
344 343 343 343 344 344 344 345 345 344 345 345 345 345 345 345 346 346 346 346 347 347 347 347 347 347 345 344 344 344 344 343 343 343 343 342 337 330 328 329 327 324 324 323 320 319 317 317 317 318 322 325 326 326 325 325 325 325 328 329 328 329 329 328 327 326 326 326 326 326 326 325 325 325 326 326 328 330 331 330 328 324 323 322 322
344 344 343 343 344 344 344 344 345 344 345 345 345 345 345 345 346 346 346 346 346 347 347 347 347 347 344 343 343 343 342 342 342 343 342 338 332 326 324 323 321 320 319 318 317 316 316 316 316 318 322 324 325 325 325 324 323 324 327 328 328 328 328 327 327 328 327 327 327 327 326 325 326 325 325 325 327 329 331 331 329 325 323 323 322
343 344 343 343 344 343 344 344 344 344 345 346 345 345 345 345 346 346 346 346 346 347 347 347 348 346 344 342 341 342 342 341 342 341 338 332 325 321 320 319 317 316 316 315 316 316 315 316 316 317 320 323 324 325 324 324 323 324 326 328 329 328 328 327 326 327 328 328 327 327 327 327 327 327 326 326 326 327 330 331 330 328 324 323 323
344 343 343 343 343 344 343 344 344 344 345 346 346 346 346 346 346 347 347 346 346 347 347 347 347 345 343 341 341 341 341 341 342 340 333 327 322 318 317 316 316 315 315 315 315 316 316 316 316 316 319 323 324 324 324 324 324 324 325 326 327 327 326 326 326 326 328 327 327 328 329 329 329 328 328 327 326 327 328 329 330 329 327 325 324
344 343 343 344 343 344 344 344 344 344 345 346 346 346 346 346 346 347 347 347 347 347 347 348 347 343 341 340 341 342 341 342 342 337 330 324 320 317 316 316 315 315 315 315 315 316 316 316 316 316 319 322 324 324 323 323 323 323 324 324 325 325 325 325 325 326 327 327 328 329 329 329 329 328 328 327 327 326 327 328 329 330 328 327 325
343 343 343 344 344 344 344 344 344 345 345 346 346 345 346 346 346 347 347 347 347 347 348 349 347 342 339 340 340 341 342 342 341 335 328 323 319 317 316 315 315 315 315 315 315 316 316 316 316 317 319 322 323 323 323 323 323 323 323 323 324 325 326 325 325 325 326 327 328 329 329 328 328 328 327 327 327 326 327 328 328 329 329 328 327
342 343 343 343 344 344 344 344 344 345 345 345 346 345 345 346 346 346 347 347 347 348 348 349 347 342 339 339 340 341 342 342 339 334 330 325 319 317 316 314 315 315 315 315 316 316 317 317 316 317 319 321 322 322 322 321 320 320 320 321 323 324 326 326 325 326 327 327 328 328 328 329 328 328 327 327 326 325 326 327 328 328 329 329 329
341 343 343 343 344 344 344 344 344 344 345 345 345 345 346 346 346 346 346 347 347 347 348 349 348 343 339 339 340 340 342 342 338 335 333 326 319 317 315 314 315 316 315 316 316 317 317 317 317 318 319 320 322 322 321 320 319 321 322 323 324 325 326 326 325 326 327 327 328 328 328 329 328 327 327 326 325 324 325 326 326 327 328 328 327
340 341 342 343 344 344 344 344 344 344 344 345 345 345 345 345 345 346 346 346 347 347 348 349 348 344 340 340 340 341 342 341 338 336 332 324 318 317 315 315 316 316 316 316 317 317 317 318 318 318 318 321 322 321 321 322 324 325 326 327 327 327 327 326 325 325 325 326 327 328 329 329 329 328 327 326 326 325 325 325 325 326 327 327 326
340 340 341 342 343 343 344 344 344 345 344 345 346 346 346 345 344 345 345 346 347 347 348 349 348 345 341 340 341 342 343 342 340 338 330 321 318 317 314 315 316 316 316 317 317 317 318 319 320 319 320 322 324 322 323 325 326 326 327 327 328 328 328 328 327 326 325 325 326 328 329 329 329 328 326 326 326 325 324 324 324 324 325 325 324
339 340 339 342 342 343 344 345 345 346 345 346 346 346 346 346 345 344 345 346 346 346 346 348 348 345 342 341 341 342 344 344 344 342 332 321 319 317 314 315 316 316 317 317 317 317 318 321 321 321 322 324 324 324 325 327 327 327 328 328 329 329 329 329 328 328 326 326 325 326 327 328 328 328 326 326 325 323 322 321 321 323 323 324 324
339 339 339 341 341 343 344 344 345 345 345 346 346 345 346 346 345 345 345 345 344 344 345 346 348 347 344 341 341 344 347 346 347 343 331 321 320 317 315 315 316 316 317 317 318 318 319 321 321 322 324 324 325 325 326 327 327 328 328 328 329 329 329 329 329 328 327 327 326 326 326 327 327 327 326 325 324 322 322 321 321 322 323 324 324
339 339 340 341 342 343 343 344 344 345 345 346 346 346 346 345 346 345 345 345 344 345 344 344 348 349 346 346 348 350 350 349 348 339 324 319 320 318 316 316 316 317 317 317 318 317 319 321 322 323 324 324 325 325 326 326 327 327 328 328 329 329 329 329 328 327 327 327 326 325 326 327 328 327 327 326 324 323 322 322 321 322 323 323 324
338 339 339 341 341 342 343 343 344 344 345 346 345 346 346 346 346 345 345 345 345 346 344 343 348 350 351 351 351 351 348 348 348 338 322 319 321 318 317 317 316 317 317 317 318 318 319 321 321 322 323 324 325 325 326 327 327 328 328 328 329 329 329 329 328 327 327 327 326 325 326 328 328 328 327 326 325 324 322 321 321 321 322 322 323
337 338 339 340 341 342 343 344 344 344 345 345 345 346 346 346 346 346 346 346 346 347 345 345 351 353 353 351 347 344 343 345 347 338 324 320 321 319 319 318 316 317 317 317 318 318 319 320 321 322 323 324 325 326 327 328 328 329 329 329 329 329 329 328 326 325 325 325 326 325 326 327 328 327 327 326 326 325 323 322 322 321 321 322 322
337 338 339 340 341 342 343 343 344 344 344 345 345 346 346 346 347 347 347 348 348 349 349 351 354 354 352 348 342 340 341 343 345 336 324 321 322 321 321 318 317 319 318 318 318 318 319 320 321 322 323 324 325 326 328 328 328 328 328 328 328 328 327 326 324 323 323 323 325 325 326 327 327 327 326 326 326 326 325 325 324 324 322 322 322
337 338 338 340 340 341 342 343 343 344 344 345 345 346 346 346 347 348 349 349 349 350 352 353 353 352 350 349 346 342 339 342 345 337 324 322 323 322 321 319 318 320 321 320 319 318 319 321 321 323 323 323 325 326 327 327 327 327 326 326 326 325 324 323 322 322 322 322 323 325 326 327 326 325 325 325 325 326 326 326 326 325 325 323 322
337 337 338 339 339 341 341 341 342 342 343 344 344 345 346 346 347 348 348 349 350 350 352 352 353 353 352 351 349 346 343 345 346 336 324 321 321 321 321 319 318 322 324 322 320 319 319 321 322 322 323 323 324 324 325 326 326 325 325 324 325 324 323 322 322 322 321 322 322 324 325 325 324 324 325 325 326 326 326 326 326 326 326 324 323
337 338 338 338 339 340 340 340 341 341 342 343 343 344 344 345 346 347 348 349 349 350 351 352 353 353 352 351 351 350 349 349 347 336 325 322 322 321 321 319 318 323 325 324 322 321 319 321 321 321 322 322 323 322 323 324 324 323 323 323 323 323 323 323 323 323 322 322 322 323 323 323 324 325 326 326 326 326 326 326 326 327 326 325 324
337 338 338 338 338 339 339 339 340 340 341 341 342 342 343 344 345 346 347 348 348 349 351 352 352 352 352 352 351 350 350 349 347 339 329 324 323 322 321 319 318 322 326 326 324 321 320 321 321 321 321 322 321 321 322 322 323 322 323 323 322 322 323 323 323 323 323 323 323 323 324 324 325 326 327 326 326 326 326 326 326 327 326 325 324
337 338 338 338 338 339 339 340 340 340 340 340 341 342 342 343 344 345 346 347 348 349 350 351 352 352 352 352 350 350 350 348 348 344 333 325 324 322 320 319 318 321 326 327 324 321 320 321 321 320 321 321 321 321 321 321 322 322 323 323 322 322 323 323 323 323 323 324 324 324 325 326 326 327 327 327 326 325 324 325 326 327 326 326 325
338 338 338 339 339 339 339 339 338 338 338 338 340 341 341 342 344 344 345 346 348 349 350 351 352 352 352 352 351 350 350 348 348 344 333 325 325 322 320 320 319 321 325 326 325 323 321 321 320 320 320 321 321 321 321 321 322 323 325 325 324 323 323 322 322 323 324 325 325 325 325 326 326 327 327 327 326 324 324 324 325 326 326 325 324
338 338 339 339 339 339 339 338 337 337 337 338 339 340 341 342 343 344 345 346 347 348 349 350 351 351 352 352 351 350 350 349 349 345 333 326 326 323 320 320 319 320 325 326 324 323 322 322 321 320 320 321 321 322 322 321 322 325 328 329 327 325 324 324 323 324 325 325 326 326 326 327 327 327 327 327 326 324 324 324 324 325 325 323 322
338 339 339 339 339 339 338 336 336 336 338 339 340 340 341 342 343 344 345 346 347 348 349 349 350 351 351 351 350 350 350 350 349 345 334 327 327 324 321 321 320 320 324 325 324 324 324 324 323 321 320 321 321 321 322 322 322 326 329 331 330 328 326 325 325 326 326 327 327 327 327 327 327 327 327 327 326 324 324 324 324 324 324 322 321
339 338 339 339 339 339 337 336 338 339 340 341 341 342 343 343 344 345 345 347 347 348 349 349 350 351 351 351 350 350 350 349 348 346 339 331 329 325 322 322 320 320 323 324 324 324 325 325 325 322 320 321 321 321 322 323 324 327 331 332 331 330 329 328 328 328 328 328 328 328 328 327 327 327 327 327 327 325 324 324 324 324 323 322 321
339 339 339 339 339 340 339 339 340 339 338 339 339 341 342 343 345 346 347 348 348 349 349 350 350 350 350 350 350 349 349 348 348 347 344 339 335 329 324 323 322 321 323 325 325 325 326 327 325 321 321 322 322 322 325 328 328 330 332 332 332 331 331 331 331 330 330 329 329 328 328 328 328 328 328 327 327 325 324 324 324 324 323 322 320
339 339 340 340 339 339 338 337 336 334 333 334 334 336 338 340 343 345 346 347 348 349 350 350 350 351 350 350 350 349 349 349 348 347 345 343 338 331 325 324 323 323 323 325 326 326 328 328 324 322 325 327 326 327 330 332 331 329 329 330 330 331 332 332 333 332 332 331 330 329 329 329 328 328 328 327 326 325 323 323 324 324 323 321 318
340 339 339 338 336 336 334 334 334 333 332 332 333 334 335 337 340 342 344 346 347 348 349 350 351 351 350 350 349 349 349 348 347 346 345 343 337 329 326 326 324 323 322 322 325 328 330 329 327 326 329 331 331 333 334 334 332 330 329 330 331 332 333 333 333 333 333 333 332 331 330 328 327 327 326 325 325 324 323 324 324 324 322 319 318
337 335 335 334 333 333 334 334 334 332 332 331 332 332 333 334 337 340 342 344 346 348 349 350 350 351 350 350 349 349 349 348 347 345 343 342 336 328 326 327 323 322 323 325 330 332 332 332 332 331 331 332 334 336 337 336 334 333 333 333 333 333 334 334 334 333 332 332 331 330 328 327 326 326 325 324 324 324 324 324 324 322 320 318 317
334 334 334 334 334 334 334 334 335 334 334 333 333 333 333 333 335 337 340 344 347 348 349 350 351 350 350 350 349 349 348 348 347 343 341 341 337 329 326 325 324 324 328 331 333 334 333 334 334 333 333 335 337 338 338 337 336 335 335 334 333 334 334 334 333 331 330 329 328 327 327 327 326 325 324 324 324 324 324 324 323 321 319 317 316
333 334 334 334 334 335 335 336 337 337 337 335 334 334 334 334 335 338 342 345 347 348 349 349 350 350 350 349 349 348 348 346 345 343 341 340 338 332 327 325 327 329 332 333 333 333 334 334 334 335 337 338 339 338 337 336 335 334 333 333 333 333 333 333 332 330 328 327 325 326 327 327 327 325 324 324 324 325 325 324 322 320 318 317 316
336 336 336 336 336 336 337 338 338 338 337 335 335 336 336 336 338 342 344 346 347 348 348 348 349 349 349 349 348 348 348 345 344 343 341 338 335 332 328 328 331 332 332 332 333 334 335 336 337 338 339 339 338 337 335 334 332 331 331 332 333 333 332 332 331 329 327 326 325 326 327 327 327 326 325 324 325 325 325 323 321 320 318 317 317
341 341 341 339 339 339 339 338 337 337 337 336 337 338 337 338 341 343 345 347 348 348 348 347 348 348 348 348 348 348 347 345 344 344 341 337 333 330 330 331 332 332 332 333 334 335 337 338 339 339 339 338 337 335 333 331 330 329 329 331 331 332 331 331 330 328 326 326 327 327 327 327 326 326 325 325 325 325 324 322 321 320 318 318 319
340 340 340 339 340 339 338 337 338 338 338 338 339 339 339 340 341 342 344 348 349 348 347 347 346 346 346 347 347 347 346 345 344 343 342 338 333 331 332 333 333 333 334 334 335 336 338 339 339 339 338 336 334 332 330 328 328 328 328 328 328 329 328 328 328 328 327 328 328 328 328 327 326 326 326 325 325 324 323 322 320 318 318 320 321
336 336 337 337 338 338 337 338 338 338 338 339 341 342 341 340 340 340 344 348 349 348 347 346 345 345 345 345 345 346 345 343 342 343 343 339 334 333 333 333 334 336 336 336 337 338 339 339 338 337 335 332 330 328 328 328 327 327 327 326 327 326 326 327 327 328 328 328 328 327 327 327 326 326 325 325 324 323 321 318 317 318 320 321 321
328 329 331 330 329 329 333 335 336 337 339 341 341 341 339 339 340 343 346 348 347 346 345 344 343 343 343 343 344 344 343 341 341 343 342 339 337 337 336 335 336 337 337 338 338 338 338 338 336 333 330 329 327 327 327 327 326 326 326 326 326 325 325 326 327 327 328 328 327 326 326 326 326 325 325 323 322 320 318 316 317 319 320 320 319
326 327 328 328 327 329 332 333 334 337 341 341 340 339 338 339 340 343 346 347 345 343 342 342 341 341 341 341 342 342 341 340 340 340 340 339 339 339 338 337 337 337 339 338 335 333 335 336 333 330 328 327 326 326 326 325 325 326 325 324 324 324 324 325 326 327 327 326 326 325 325 325 325 324 322 320 318 316 315 315 318 319 319 319 318
325 326 326 327 330 333 336 337 339 341 343 342 342 341 341 341 341 341 344 344 343 341 340 339 339 339 339 339 340 339 339 339 338 338 338 338 337 337 337 337 337 337 335 331 326 328 333 333 330 327 326 325 324 324 324 324 325 324 323 322 322 323 323 324 325 325 325 325 325 324 324 324 323 322 321 319 317 315 315 316 318 318 318 317 317
327 328 329 330 334 337 339 340 342 344 344 343 343 343 343 342 341 342 343 343 342 341 338 336 338 339 338 338 338 337 336 336 336 336 336 336 337 337 335 334 332 330 327 324 324 328 331 330 327 326 324 322 322 323 324 324 324 322 322 322 322 322 323 324 324 323 324 325 324 324 323 322 321 320 320 319 318 317 316 317 317 317 316 316 315
330 332 335 336 337 339 340 341 342 343 342 341 342 342 341 341 341 342 343 342 341 339 337 336 337 337 336 335 335 334 334 334 336 337 336 336 334 331 328 326 327 327 327 327 328 329 328 326 325 324 322 321 322 323 324 324 323 322 322 322 322 322 323 323 323 323 323 324 323 322 322 320 319 319 319 318 317 317 316 316 316 315 315 315 313
Wind_Speed
30 28 27 27 27 27 26 27 25 25 24 24 23 23 23 24 24 25 24 24 24 23 23 23 23 23 23 23 22 20 19 18 17 16 16 15 14 13 13 13 13 14 13 12 11 11 11 11 12 11 10 9 10 11 12 12 10 8 7 7 7 7 8 8 8 9 9 9 8 6 6 6 5 4 4 4 4 4 3 3 3 4 4 6 6
31 30 29 28 28 28 27 28 28 27 26 26 25 23 23 23 23 24 23 24 25 25 25 24 24 23 22 22 21 19 19 18 18 17 16 15 15 14 13 13 14 14 12 11 11 11 11 11 11 9 10 11 11 11 9 8 5 4 5 5 6 6 7 7 7 8 7 8 9 7 4 3 3 1 1 4 6 5 4 4 3 3 3 4 5
32 32 31 31 30 30 30 30 30 29 27 27 26 24 23 23 23 23 23 24 25 25 25 24 23 22 21 21 19 19 18 18 17 16 16 16 15 14 14 14 15 14 12 12 12 11 11 11 10 10 11 12 11 8 6 4 3 3 4 5 5 6 6 6 6 6 6 7 9 8 5 4 2 1 3 6 5 3 5 5 5 4 4 4 4
35 33 32 33 33 32 33 32 31 31 30 29 27 26 25 24 23 22 22 23 24 25 25 24 23 21 21 20 19 19 19 18 17 17 17 16 16 16 15 15 15 14 13 13 12 12 12 12 11 12 13 11 8 6 4 3 3 3 3 4 4 4 5 5 5 6 6 6 6 5 6 5 3 2 7 5 2 4 5 5 5 5 5 5 4
36 36 35 35 35 35 35 34 33 33 33 31 29 28 27 24 22 21 22 23 23 24 24 23 23 22 21 21 20 20 20 19 19 18 17 17 16 15 16 15 14 14 13 13 14 14 13 13 12 13 12 9 6 4 3 3 3 3 3 3 3 3 4 5 5 5 4 4 5 4 4 4 3 6 7 4 3 4 3 4 6 5 5 5 5
38 37 36 36 36 36 36 35 35 35 34 32 31 29 28 26 23 22 22 22 22 23 23 23 23 23 22 22 22 22 22 21 20 18 17 15 15 14 15 15 14 14 14 14 15 14 14 13 13 13 10 8 6 4 3 3 3 3 3 3 3 3 4 4 4 4 4 4 3 3 2 3 4 6 5 4 5 5 4 5 6 5 5 6 5
39 39 38 37 37 36 37 36 36 36 34 32 31 31 30 29 26 24 23 22 22 23 24 24 24 23 23 22 22 21 21 20 18 16 15 15 14 14 15 15 15 15 15 15 15 14 14 14 13 12 9 8 6 5 4 3 3 3 3 3 3 3 3 3 4 4 5 4 3 3 2 2 4 4 4 5 6 5 5 6 6 5 6 7 6
40 41 40 39 38 37 37 37 36 35 33 33 32 32 31 30 29 28 26 24 23 23 24 25 25 24 24 23 23 22 21 19 17 15 16 16 15 15 15 15 15 15 15 15 14 14 14 13 13 11 9 8 6 4 4 4 3 3 3 3 3 3 2 3 4 5 4 4 4 4 3 2 3 3 3 3 4 5 5 6 5 6 7 8 7
43 42 41 40 39 38 37 36 36 35 34 34 33 32 32 31 31 30 29 27 26 25 25 25 25 25 24 24 24 23 21 20 18 17 17 17 16 16 15 15 15 14 14 14 13 13 13 13 12 10 8 7 5 4 4 3 3 3 3 3 3 3 3 4 5 5 4 4 4 4 3 3 3 3 4 3 2 4 4 5 6 5 6 7 7
44 43 42 41 39 38 37 37 36 35 35 34 33 33 33 33 33 32 32 30 28 27 27 26 26 26 26 25 25 24 22 21 19 19 19 18 18 17 16 15 14 14 13 13 13 13 13 12 11 9 8 7 6 5 4 3 3 3 3 4 4 4 4 5 5 4 4 4 4 4 4 4 4 4 4 3 2 4 5 5 6 6 5 5 5
45 44 44 43 40 39 39 38 38 37 36 35 35 35 34 34 34 34 33 31 30 29 28 27 26 26 27 26 26 25 23 22 21 20 20 19 19 17 15 14 14 14 14 13 13 13 12 11 10 9 8 7 6 5 4 4 4 4 4 5 5 5 6 6 6 5 5 5 4 4 4 4 4 4 4 4 4 4 5 6 6 7 7 5 4
45 44 45 45 43 42 41 41 40 38 37 37 37 37 36 36 35 35 34 33 32 30 29 28 27 27 27 27 26 26 24 23 22 21 20 19 18 17 15 14 14 14 14 14 13 13 12 11 10 9 9 8 7 6 5 5 6 6 6 7 7 7 7 7 7 6 6 6 5 5 5 5 5 5 6 6 6 5 6 7 8 9 9 7 6
46 46 47 46 46 45 43 43 42 41 40 39 38 38 38 36 36 35 35 34 33 32 30 29 29 28 28 28 27 26 25 24 22 21 21 19 18 16 15 14 14 14 14 13 13 13 12 11 10 10 9 9 8 7 7 7 7 7 7 8 9 9 8 8 7 7 6 6 6 6 6 6 6 7 7 8 8 7 7 7 8 10 11 11 10
47 48 49 47 47 46 45 44 43 43 42 41 40 39 39 38 37 36 35 34 33 32 31 30 30 29 28 28 28 27 27 25 24 22 21 19 17 16 15 14 14 14 13 13 13 13 12 12 11 11 10 10 10 9 8 8 8 8 8 8 9 9 9 9 9 8 7 7 7 7 7 7 7 8 9 9 10 9 8 8 9 11 13 14 13
46 50 50 49 49 47 46 45 44 43 43 43 42 41 40 39 38 38 37 36 35 34 33 31 31 30 29 29 29 29 28 26 25 23 21 20 18 16 15 15 15 14 14 13 14 14 13 12 12 11 11 11 11 10 9 9 9 9 9 9 10 10 11 11 10 10 9 9 8 8 7 7 7 8 9 10 11 11 10 10 10 10 13 15 15
45 50 50 50 50 48 48 47 45 45 44 44 44 42 41 41 40 39 37 36 36 35 34 33 32 31 31 31 31 30 29 27 26 24 22 20 19 17 16 15 15 15 15 15 15 15 14 12 12 12 12 12 12 11 10 10 10 10 11 10 10 11 12 11 11 11 11 10 10 9 8 8 8 9 10 11 12 12 12 12 12 11 11 13 14
46 49 51 52 51 50 50 49 47 47 46 46 44 42 41 41 41 40 39 38 37 36 35 34 33 33 33 33 32 31 30 29 27 24 22 21 20 18 17 16 16 16 16 16 16 15 13 12 12 12 13 12 12 12 11 11 11 11 11 11 10 11 12 11 12 12 11 11 11 11 10 10 9 10 12 12 13 14 13 14 14 13 12 13 13
47 50 52 52 52 52 51 50 50 48 46 45 43 41 41 41 40 40 40 39 38 37 37 35 35 35 35 35 34 33 31 29 27 25 23 21 20 19 18 17 17 17 17 17 17 16 14 13 13 13 13 13 12 12 12 12 12 11 11 10 10 10 11 11 12 12 12 12 13 13 12 11 11 12 12 14 15 15 15 16 16 15 15 15 14
46 49 51 51 52 53 52 51 50 49 48 45 42 42 42 41 40 40 40 40 39 39 38 37 36 36 37 36 34 33 31 29 27 26 24 22 21 20 19 18 18 18 18 18 18 16 14 14 14 13 13 13 12 12 12 11 10 10 9 8 8 8 9 10 10 11 13 13 14 14 14 13 13 13 13 15 16 17 17 17 17 17 18 18 17
46 48 50 51 52 53 53 52 51 49 48 46 45 44 42 41 40 41 41 41 41 40 39 38 37 38 38 37 35 34 32 30 29 27 24 23 22 21 19 19 18 19 19 19 18 16 15 14 14 13 13 13 13 12 11 10 10 9 8 7 7 8 8 9 9 10 12 14 15 15 15 14 14 14 14 14 15 16 17 17 17 18 18 19 20
45 46 48 49 50 51 52 52 51 50 48 47 47 46 44 42 41 41 42 42 42 42 40 40 39 39 39 38 37 35 33 31 29 27 24 23 22 21 20 20 19 19 20 20 18 16 15 14 14 13 14 14 13 12 12 11 11 10 9 9 9 10 10 10 10 10 12 13 15 15 16 15 15 15 14 14 14 15 16 17 17 18 18 19 20
44 45 45 46 48 50 50 50 50 50 50 49 49 47 46 45 42 42 42 42 42 43 42 42 41 41 40 39 38 36 34 32 28 25 23 23 23 21 21 20 20 20 21 20 17 16 15 15 14 14 15 14 13 13 13 12 12 11 11 11 12 13 13 13 13 13 13 14 15 16 16 16 15 15 15 14 15 15 16 17 17 18 18 18 18
40 42 43 44 46 48 48 49 49 49 49 49 49 48 47 46 43 43 42 42 42 43 43 43 43 42 41 40 38 36 33 30 26 24 22 22 23 22 21 21 20 21 21 19 17 16 15 15 15 16 16 15 14 13 12 12 12 13 14 14 15 15 16 16 16 15 15 15 17 17 17 16 15 15 15 15 15 16 17 17 17 17 17 17 17
37 40 42 43 44 45 46 47 47 48 48 48 49 49 48 47 46 45 44 43 43 44 44 44 43 43 41 39 37 34 30 27 25 24 24 24 24 24 22 21 21 21 21 19 17 17 16 16 16 17 16 15 14 13 12 12 13 14 16 17 17 18 18 18 18 17 16 16 17 17 16 15 15 15 15 15 15 16 17 17 17 17 17 17 17
35 38 40 41 43 43 44 45 45 46 47 47 48 49 48 48 47 46 45 44 45 45 45 44 44 43 39 36 35 32 30 29 29 27 26 26 25 24 23 22 21 21 21 19 18 18 18 18 17 17 16 16 15 14 13 13 14 16 17 18 19 19 19 19 20 19 18 17 18 18 16 15 15 16 16 15 15 16 16 17 17 17 17 17 17
32 36 39 40 41 41 43 44 44 44 45 46 46 47 47 47 47 47 46 46 47 46 46 45 43 40 39 38 38 37 36 34 32 29 26 25 26 25 24 22 21 21 21 21 19 19 19 18 17 17 17 16 15 15 15 15 16 17 18 19 19 19 20 20 20 20 19 18 18 18 17 16 16 17 16 16 16 16 16 17 18 18 18 18 17
29 34 36 38 39 40 41 42 42 42 42 43 43 44 44 45 46 47 47 48 48 48 48 45 42 42 44 46 45 42 39 37 34 30 27 25 25 25 25 23 21 21 22 21 21 20 20 19 18 19 18 16 15 16 16 16 17 17 18 18 19 19 19 20 20 19 19 18 18 18 18 17 17 17 16 16 16 17 17 18 19 19 19 19 19
29 33 36 37 39 39 39 39 39 39 39 40 41 41 42 43 44 45 46 47 48 48 47 44 45 47 49 49 47 43 40 38 36 33 31 29 27 28 27 24 23 23 22 21 21 21 21 20 20 20 19 17 16 17 17 18 17 17 18 18 18 19 19 20 20 19 18 19 18 18 18 18 17 16 16 16 17 18 19 20 21 21 21 21 21
30 33 36 37 38 37 36 35 34 35 36 37 38 39 39 40 42 42 44 45 46 46 45 44 46 48 48 47 46 42 40 37 34 34 36 35 34 33 29 27 27 25 21 20 22 22 22 22 21 21 19 18 18 19 18 18 18 17 18 18 19 19 20 21 20 19 19 18 18 18 18 17 16 15 15 16 18 20 21 23 23 23 23 22 22
32 34 35 36 36 35 33 31 31 32 32 33 34 34 35 37 38 40 41 42 43 44 43 44 45 45 46 47 43 39 36 34 34 37 39 40 40 39 34 32 32 28 21 20 22 23 24 24 23 22 21 20 20 20 19 19 18 17 18 19 19 20 21 21 20 20 19 18 18 18 17 15 15 15 16 17 19 21 23 24 24 24 24 23 23
33 34 35 34 33 32 30 28 28 27 26 27 27 28 30 32 34 36 38 39 40 40 41 42 43 43 44 43 39 35 34 34 38 42 43 42 42 41 38 35 35 31 23 20 22 23 24 25 25 24 23 22 22 21 20 19 18 18 18 19 20 21 21 22 22 21 20 19 19 18 17 16 16 16 17 18 20 23 25 26 26 25 24 24 24
33 34 34 33 32 30 27 25 22 21 21 21 21 23 25 27 30 32 34 35 37 38 39 40 41 40 40 40 38 37 35 36 42 46 46 43 41 41 39 36 36 33 26 22 23 23 24 25 26 26 25 24 23 22 21 20 19 19 19 20 21 22 23 23 24 23 22 20 20 19 18 18 17 17 19 20 21 23 25 27 27 26 25 25 25
34 34 33 32 30 26 22 20 17 16 15 14 16 18 20 22 25 28 29 31 33 35 36 37 38 38 38 38 38 37 35 36 41 45 46 43 40 41 40 38 37 35 28 25 25 25 26 27 28 28 27 25 25 23 22 21 20 19 19 20 22 23 24 25 26 25 24 23 22 21 21 20 19 19 20 21 22 23 24 26 26 26 26 26 26
31 31 31 30 27 23 20 17 15 13 12 13 14 15 17 19 21 23 25 28 30 31 33 34 35 37 37 37 37 36 34 33 38 43 46 44 41 41 42 39 38 37 31 27 26 26 27 27 27 28 28 27 27 25 23 22 21 20 20 21 23 25 26 27 27 27 26 25 24 24 23 23 22 22 23 23 23 23 24 24 25 26 26 26 26
29 28 29 28 25 22 19 18 16 15 14 13 13 14 15 16 17 20 23 25 26 28 29 31 33 34 35 36 35 34 32 31 35 41 45 44 41 42 41 38 38 38 33 29 27 27 28 27 26 28 29 28 27 26 24 23 23 21 21 22 25 26 26 27 28 27 27 27 26 26 26 25 24 24 25 25 24 23 23 24 25 25 25 25 26
27 27 26 25 24 22 21 19 16 13 10 9 8 9 11 13 14 17 20 21 23 25 27 29 31 32 34 34 34 34 31 29 31 39 44 44 42 43 41 37 37 38 35 31 29 29 29 27 26 28 28 28 27 26 24 23 23 22 22 24 26 26 27 27 28 28 29 29 29 28 28 28 26 26 26 26 25 24 23 23 24 24 25 26 28
25 25 24 23 22 20 18 14 11 9 8 7 7 7 7 9 11 14 16 18 20 23 25 27 28 30 32 33 33 33 30 27 30 36 41 42 43 44 42 38 37 38 35 32 31 31 30 28 27 27 27 26 26 24 22 22 21 21 22 24 26 26 27 28 29 30 30 31 30 30 30 30 28 28 28 27 26 25 23 23 24 24 25 27 28
21 20 18 17 16 16 16 16 16 15 12 10 8 6 5 5 7 9 12 14 17 19 21 23 25 28 30 32 32 31 28 27 29 33 36 40 42 43 42 38 37 38 36 33 32 32 30 28 27 26 25 25 26 24 23 23 22 20 21 24 25 26 27 28 30 31 30 30 30 31 32 31 30 31 30 28 27 26 24 23 23 24 26 27 27
14 16 19 21 22 23 23 21 18 15 11 9 7 5 4 3 3 5 8 11 13 14 16 18 22 25 28 31 31 29 26 27 29 30 31 35 39 40 39 37 36 37 36 35 34 32 29 27 26 26 25 25 26 25 25 25 23 21 21 23 25 26 27 29 31 31 30 30 30 31 29 25 23 27 28 27 26 25 24 23 22 24 26 27 26
25 27 29 28 26 25 23 20 16 12 10 8 6 5 4 3 2 3 5 6 7 9 12 15 19 23 27 30 29 27 25 26 27 27 29 33 36 37 37 36 36 36 35 33 30 28 27 27 26 25 24 24 25 24 22 21 20 21 21 22 23 24 24 26 28 26 25 25 26 25 22 17 16 20 23 24 24 23 22 21 22 23 25 25 24
33 31 30 28 25 22 19 17 14 11 9 7 6 5 5 3 2 1 1 2 4 7 10 14 18 22 26 27 26 25 26 25 24 24 29 33 33 34 35 34 33 32 30 29 27 25 26 25 22 21 21 22 22 20 18 17 18 19 20 21 23 22 22 22 22 20 18 18 18 18 17 14 13 16 20 22 22 21 21 20 21 23 23 23 23
30 28 26 24 22 19 16 15 12 10 8 7 6 6 5 4 2 1 0 1 4 7 10 14 17 20 23 25 25 25 26 28 25 23 27 30 31 33 35 33 31 29 27 25 24 23 22 19 18 18 19 19 18 16 16 16 16 18 19 20 21 20 19 18 18 17 16 16 16 15 15 14 14 17 20 21 20 19 20 20 21 22 22 22 23
29 26 23 22 21 18 16 14 11 9 8 7 7 7 6 5 3 2 0 2 5 7 10 13 16 19 21 23 24 24 26 28 25 23 25 26 28 32 35 32 28 24 22 21 19 18 18 17 17 17 16 15 14 14 15 16 16 17 18 18 18 18 17 17 18 17 17 16 15 15 15 15 16 18 19 19 19 19 20 20 20 21 22 21 21
29 27 24 21 20 18 16 14 11 9 8 6 5 5 5 4 3 1 2 3 5 8 10 13 16 19 21 22 22 23 25 25 22 22 25 26 27 33 36 32 25 19 18 19 18 17 18 17 16 15 14 13 13 14 15 16 17 17 17 16 16 17 17 17 18 17 17 17 16 17 17 17 17 18 18 19 19 20 20 20 20 21 21 19 18
26 25 23 20 19 18 16 14 11 9 7 5 4 4 4 4 3 3 4 5 7 8 10 12 14 17 19 20 21 22 24 23 20 22 26 27 29 34 36 31 24 19 19 20 21 20 19 17 15 14 12 12 14 15 16 17 18 17 17 16 16 17 17 18 18 18 18 18 18 18 18 17 17 17 18 19 20 19 19 19 19 18 17 15 14
21 20 19 17 16 14 12 11 9 6 4 4 5 5 5 4 4 4 6 6 7 7 8 9 11 14 15 17 19 20 22 21 20 23 26 26 28 33 34 29 25 23 23 24 25 22 18 15 14 14 13 14 16 17 17 18 19 18 17 16 16 17 17 18 18 19 19 19 18 18 17 15 15 16 17 18 19 18 16 15 14 13 12 11 12
16 14 12 10 8 6 5 6 6 5 5 6 7 7 7 6 6 6 7 7 6 6 6 7 9 11 13 15 17 18 19 17 18 22 24 24 25 28 30 29 28 27 26 24 21 17 13 12 14 15 16 15 16 17 17 18 19 19 18 16 15 16 17 17 17 17 17 18 18 16 14 13 13 14 16 17 16 14 13 12 11 9 9 10 13
14 11 10 8 6 5 6 7 8 9 9 9 9 9 9 8 7 7 7 6 6 6 6 7 8 10 12 13 15 17 17 17 18 19 21 21 22 22 23 25 26 24 21 16 13 11 11 13 15 16 16 15 16 17 18 18 18 18 17 16 15 15 15 15 15 15 15 15 14 12 11 12 13 13 13 12 11 11 10 10 9 8 10 13 15
12 10 8 7 6 7 8 9 10 10 10 9 8 7 8 7 6 6 6 7 8 8 8 9 9 9 10 12 13 15 16 17 18 18 17 18 18 19 20 21 19 16 13 12 11 12 13 14 15 16 16 16 16 17 18 18 17 17 16 16 15 14 14 14 14 13 13 11 9 9 10 11 11 11 8 7 7 8 8 9 10 11 13 15 15
10 8 7 7 7 8 9 10 9 8 7 6 4 4 4 5 5 5 6 7 9 10 11 11 10 10 11 11 11 13 14 15 15 14 15 16 16 17 16 14 12 11 10 11 13 13 14 15 15 16 17 17 17 17 18 17 16 15 15 15 15 14 14 14 13 12 10 9 9 10 10 9 8 7 5 4 5 5 7 10 13 14 14 15 16
8 7 7 7 8 8 8 7 6 5 4 3 2 2 2 3 5 6 6 8 10 11 12 13 13 13 12 11 10 10 10 11 11 12 15 16 15 14 12 9 7 8 10 11 12 13 14 15 16 16 16 17 17 17 17 16 15 15 15 15 14 14 13 13 12 11 10 10 11 9 8 8 8 6 4 5 5 6 9 11 13 14 15 17 18
Wind_Direction
214 213 211 210 211 210 210 211 212 213 211 211 212 215 217 218 220 222 222 221 221 220 220 220 220 221 223 225 228 230 231 234 237 239 242 245 247 250 256 263 272 275 278 278 273 273 273 276 283 289 295 297 295 292 293 295 295 297 301 303 305 309 315 320 323 326 330 336 343 341 324 320 320 309 312 330 334 336 335 326 319 309 298 295 293
218 217 214 212 212 212 212 212 213 213 211 211 211 212 214 216 218 220 221 221 221 220 220 220 221 222 224 227 231 233 235 238 240 243 244 247 250 251 256 266 274 276 275 269 268 272 276 282 291 295 298 301 300 298 296 295 296 301 299 300 305 314 322 328 334 339 341 343 347 356 1 356 346 325 358 350 339 341 358 2 359 347 319 303 299
219 219 216 215 214 214 214 214 214 214 214 214 214 214 215 216 218 219 220 221 222 221 220 220 222 224 227 231 234 237 240 241 243 244 244 247 251 252 259 267 274 276 272 268 272 277 281 288 294 296 298 302 303 303 301 298 294 294 296 301 310 321 328 335 342 342 340 341 345 352 1 16 50 105 4 347 337 1 18 11 3 0 346 327 319
218 218 217 217 216 216 217 215 215 216 217 217 216 216 217 217 218 219 219 220 221 220 219 220 222 224 226 230 234 237 240 240 243 244 244 248 251 254 261 268 273 275 271 271 276 280 283 289 292 295 299 301 303 303 301 292 282 287 298 303 309 319 326 331 336 333 332 340 349 348 348 17 73 354 355 11 25 12 16 15 4 356 348 337 334
218 218 218 218 218 218 218 217 217 218 219 218 216 215 215 216 217 218 220 221 220 218 218 218 218 220 222 226 230 233 235 236 237 239 241 246 251 259 265 269 272 272 271 274 279 281 283 288 291 294 297 300 303 301 293 287 287 293 298 298 303 314 320 324 329 329 333 343 358 359 350 13 16 347 359 39 33 11 30 31 11 360 359 356 352
220 220 219 219 219 220 221 221 221 222 221 219 218 216 216 216 216 217 219 220 220 218 216 216 217 218 220 223 227 230 233 234 236 239 245 251 259 266 269 270 272 271 271 274 278 280 283 288 292 294 298 302 302 298 293 294 295 292 291 293 303 312 316 322 327 330 337 346 358 8 359 345 339 345 357 353 359 37 64 39 25 20 19 20 16
222 223 223 222 222 222 223 223 224 223 221 220 220 218 218 218 217 217 217 218 219 218 218 219 220 221 223 226 231 234 237 240 242 247 254 260 264 268 269 270 270 269 270 272 275 278 283 289 292 295 299 300 299 294 291 295 292 285 282 288 295 300 306 318 325 328 332 340 349 357 357 332 325 338 348 339 346 18 50 54 54 47 38 33 31
223 224 224 224 225 224 224 224 224 224 222 221 221 220 220 219 219 219 219 218 218 219 221 222 224 225 227 230 234 238 242 247 250 252 256 260 263 265 266 267 266 266 267 269 273 278 283 287 289 293 296 295 292 281 278 287 284 275 273 279 283 284 297 313 320 326 328 335 349 357 359 348 334 332 331 335 332 336 13 40 42 54 53 37 34
225 226 225 224 225 225 225 225 225 226 225 223 222 221 221 220 220 221 221 221 220 221 223 225 227 229 231 233 236 240 243 246 248 250 252 255 257 260 261 262 263 264 266 269 274 278 281 283 284 288 289 286 279 264 269 278 272 271 274 280 280 278 296 308 314 324 330 335 347 356 359 353 346 342 332 329 318 311 332 0 4 32 49 36 37
227 228 228 227 226 226 227 227 227 227 227 225 223 223 223 222 222 222 223 223 223 224 225 227 229 230 233 235 238 241 243 244 244 245 247 249 252 256 258 260 263 266 268 272 276 279 279 277 278 281 279 270 259 256 268 276 273 279 284 284 284 285 297 306 309 317 326 331 336 340 347 347 344 346 337 329 316 305 312 334 341 343 2 24 33
227 228 230 232 231 230 229 228 228 228 227 226 225 225 224 224 223 223 224 224 224 226 227 228 230 231 234 235 238 240 242 243 243 244 247 249 252 256 259 261 264 266 269 273 276 277 275 273 274 275 270 260 254 262 280 291 295 301 294 286 287 291 296 300 304 309 317 319 317 320 327 330 328 327 325 318 314 309 306 315 323 324 331 347 354
227 227 230 232 232 231 230 229 229 228 228 226 225 225 224 224 224 224 225 225 225 227 228 229 231 232 234 235 237 239 240 241 242 245 249 251 254 257 259 261 262 265 268 272 275 275 274 274 275 272 265 260 260 273 287 292 299 301 296 290 290 290 290 293 298 303 311 311 309 312 314 315 319 319 320 318 314 305 300 310 317 319 322 324 325
225 227 229 230 230 230 230 230 229 228 228 226 225 225 225 225 225 225 226 226 226 227 229 231 232 233 234 235 236 237 238 240 241 244 247 250 253 255 256 259 262 266 269 274 276 274 273 272 270 264 259 258 260 268 275 280 289 292 287 286 286 286 286 289 294 296 300 303 302 303 305 310 316 315 318 319 314 307 300 304 308 312 316 318 318
223 226 229 229 230 230 231 231 230 230 229 227 226 226 226 226 225 226 227 227 227 228 230 232 233 233 234 234 235 235 236 238 239 241 244 246 248 249 252 255 259 263 266 269 269 266 266 265 263 259 253 252 254 257 261 266 275 281 280 278 279 281 284 286 290 290 290 291 292 295 299 306 310 311 314 314 312 308 301 298 300 307 313 315 315
221 225 227 229 231 231 231 232 231 230 230 229 227 227 227 227 227 227 227 227 228 229 231 233 233 233 233 233 234 234 235 236 238 239 241 242 243 243 245 248 252 256 258 259 258 257 259 260 260 257 250 247 248 250 254 259 267 274 275 276 275 278 280 282 284 284 283 284 285 287 291 298 302 303 305 306 308 307 303 301 299 300 306 309 310
219 223 225 229 230 231 232 232 231 231 230 229 228 228 228 227 228 228 228 228 228 229 231 233 233 232 232 232 233 233 234 235 235 236 237 238 239 238 240 244 247 250 251 251 251 253 256 256 257 255 247 244 245 246 251 257 264 270 273 274 275 277 277 277 279 279 278 279 279 281 285 291 294 295 297 299 301 302 301 301 298 294 295 298 301
219 222 224 227 228 229 231 231 231 230 230 230 230 230 229 229 228 228 229 229 229 231 232 233 233 232 231 232 232 233 233 233 233 234 235 236 236 235 237 240 242 245 246 247 250 252 253 253 253 251 245 242 243 247 251 257 262 265 267 270 270 271 273 274 276 276 275 275 276 279 282 287 290 292 295 296 296 298 299 299 298 295 290 289 291
222 223 224 226 226 227 228 230 232 231 231 231 231 231 231 231 231 230 230 229 230 231 232 233 233 231 231 231 232 233 233 234 233 233 235 236 235 234 235 237 239 242 243 245 248 250 250 250 249 245 241 239 241 247 252 254 256 257 258 261 262 263 267 271 273 274 274 273 274 276 279 284 287 290 293 294 296 298 298 298 298 295 291 289 291
220 222 223 223 224 226 226 228 230 231 232 232 232 232 232 232 233 233 233 232 231 232 233 234 234 232 232 232 232 233 233 234 233 232 234 234 234 234 234 237 238 239 241 243 245 245 246 248 244 238 235 234 239 245 245 244 244 245 246 249 255 263 269 275 278 276 274 272 272 274 277 280 285 288 290 294 297 299 299 298 297 294 291 292 296
217 219 220 222 223 224 226 227 228 230 231 232 231 231 231 232 233 233 233 233 233 234 235 236 236 234 233 232 232 232 233 234 232 232 232 232 233 233 233 235 236 238 240 241 242 241 242 243 238 233 232 232 234 233 229 232 236 240 244 250 260 270 276 282 284 283 280 274 272 272 274 277 282 285 287 291 295 297 297 297 295 294 292 293 297
215 217 219 221 222 223 225 227 228 229 230 230 229 230 230 231 232 233 234 234 233 234 236 237 238 236 235 233 232 232 232 233 232 232 231 230 231 231 232 234 235 237 239 239 239 237 237 238 234 230 231 231 228 223 224 233 241 247 254 260 268 273 278 284 287 288 289 285 279 273 273 275 278 280 284 286 289 291 292 292 292 292 292 292 294
215 217 219 221 222 222 223 224 225 226 227 227 228 229 229 229 231 233 234 235 235 235 235 235 237 237 236 234 234 234 233 233 233 234 233 232 232 231 231 233 235 238 239 238 237 235 233 233 231 230 232 230 226 225 229 238 247 255 262 265 269 273 278 284 287 287 289 291 287 278 272 272 274 277 281 284 287 289 290 291 291 291 291 292 292
217 218 219 220 221 221 221 223 225 226 227 227 227 229 230 229 230 232 233 235 236 237 236 236 237 238 237 236 236 234 233 233 234 235 235 235 236 234 233 234 236 238 239 238 236 233 231 230 230 231 232 231 229 229 235 244 254 262 267 269 271 275 279 283 286 286 287 289 289 283 274 270 271 275 280 284 288 290 291 293 294 292 292 293 293
217 217 218 219 220 220 220 222 225 225 226 227 227 228 230 230 230 231 233 235 236 238 239 238 238 239 238 235 232 231 232 235 235 234 232 233 237 237 235 235 236 237 238 237 235 232 230 229 230 231 232 233 232 234 240 251 260 265 269 271 273 275 278 281 284 285 283 283 286 284 278 274 273 275 281 285 287 291 293 294 295 296 297 296 295
215 216 217 218 220 220 220 221 223 224 225 226 227 228 229 231 232 232 233 235 237 238 240 240 240 238 233 229 229 232 236 236 234 230 228 230 236 238 236 236 236 237 237 237 235 233 231 231 232 232 233 234 234 238 245 253 260 265 268 270 271 274 277 279 281 281 279 278 281 282 279 276 275 277 282 285 287 293 296 296 297 299 300 299 296
214 214 215 217 219 219 218 219 221 222 224 225 227 229 230 232 233 234 235 236 237 238 240 240 237 230 225 226 230 233 234 233 230 226 225 229 236 240 239 237 236 236 238 238 236 235 233 234 236 236 235 236 237 242 248 254 261 264 266 267 269 272 275 278 280 279 276 275 275 277 277 275 274 277 281 283 288 295 298 299 301 301 302 300 298
213 212 213 214 216 217 217 218 220 222 224 226 228 229 231 233 234 235 236 237 238 238 238 236 231 229 231 232 230 228 228 228 224 220 220 226 234 240 240 236 232 233 237 239 238 236 235 235 238 239 238 238 241 245 249 255 259 262 264 266 269 273 277 280 281 279 275 272 272 273 273 273 274 277 279 283 288 294 298 300 302 302 303 301 299
210 211 212 213 215 216 216 217 219 223 225 227 229 231 233 235 236 235 236 237 238 239 238 234 232 235 238 235 230 226 225 223 218 213 214 218 226 235 236 231 227 228 233 238 238 236 235 235 236 238 239 240 244 247 250 255 259 262 266 269 273 277 280 283 283 280 276 273 271 270 271 273 275 276 279 283 287 291 294 296 298 300 300 299 299
209 211 212 213 215 216 216 218 220 223 225 227 229 231 234 236 237 237 237 238 240 240 239 237 236 237 238 238 235 229 222 219 214 212 211 211 215 223 228 226 223 224 228 233 236 236 235 234 236 238 239 242 246 250 253 257 262 267 272 276 277 279 281 283 284 283 280 275 271 270 270 270 272 274 279 282 285 288 289 290 293 295 296 297 297
211 212 212 213 216 217 217 219 221 223 225 228 230 233 235 236 237 238 238 238 241 242 240 237 236 237 239 241 238 227 217 212 211 214 215 214 214 217 220 220 218 220 225 230 234 235 232 232 235 238 241 243 248 253 257 260 265 271 276 278 279 281 282 282 282 282 281 278 274 270 267 266 268 273 278 282 285 285 285 286 287 288 291 294 293
213 213 211 211 213 214 216 218 222 225 227 230 232 234 236 236 238 239 239 240 242 241 239 238 238 240 240 239 233 223 215 211 213 218 220 219 218 216 216 218 217 218 224 230 234 233 230 230 234 237 241 244 249 255 258 261 267 272 276 278 280 282 281 280 280 280 279 277 273 268 265 263 266 273 278 282 284 283 283 283 283 284 287 289 290
213 211 209 209 210 211 214 217 221 223 225 228 231 233 235 236 238 239 240 242 242 240 239 240 240 240 239 237 231 226 222 217 217 219 220 220 219 215 215 218 218 218 223 231 232 226 224 230 235 238 242 246 250 255 258 262 267 271 276 279 280 280 279 277 277 277 276 274 271 267 264 263 266 272 276 280 282 283 283 281 281 283 284 286 289
213 210 208 209 209 209 210 210 209 211 217 225 230 234 239 239 240 241 242 242 241 240 241 240 240 241 239 236 234 231 226 221 221 220 218 218 219 215 214 218 217 217 224 231 231 227 225 230 237 241 244 249 252 255 258 263 268 272 277 279 279 278 277 275 274 274 274 273 270 266 263 263 266 271 275 279 282 285 285 282 281 282 283 285 289
212 211 209 208 207 206 204 199 198 201 210 221 226 232 240 241 243 244 243 243 242 242 242 242 242 242 239 236 235 233 228 227 227 224 218 218 220 216 214 216 216 217 225 232 233 234 234 238 244 246 247 251 255 258 262 267 270 274 277 279 279 277 273 270 269 270 271 272 270 267 265 266 268 271 276 279 282 285 285 282 280 280 283 287 291
210 208 209 209 204 200 195 191 195 202 210 219 225 232 240 243 245 246 244 245 245 244 245 245 244 242 239 236 234 233 232 233 232 226 220 220 221 218 216 216 215 218 226 233 235 238 242 247 253 252 250 254 260 264 269 272 273 276 277 278 277 274 271 269 267 267 269 270 269 267 266 266 267 270 273 276 280 284 283 279 278 280 284 289 293
212 206 205 204 199 193 191 193 198 202 206 212 217 225 233 237 242 244 244 246 246 245 246 246 245 244 241 237 235 234 235 236 234 229 224 222 223 221 218 216 215 219 227 235 238 241 246 252 257 255 254 259 265 270 273 275 276 277 277 276 275 273 272 270 268 268 268 268 266 265 264 265 264 264 266 270 275 280 280 277 278 281 285 290 294
213 206 202 202 200 194 190 184 170 154 150 156 168 186 207 221 232 239 243 247 247 247 248 248 249 247 242 239 239 237 235 236 235 232 230 228 227 224 219 215 216 220 226 235 240 244 250 256 258 256 257 264 270 273 276 280 281 278 274 274 274 273 273 272 270 268 266 265 266 264 265 267 268 267 267 268 270 274 275 276 278 281 285 289 294
210 204 194 187 178 161 147 137 129 128 128 129 138 151 173 204 226 237 244 249 250 251 253 252 251 249 243 241 240 237 235 236 235 233 234 233 230 224 218 214 216 221 226 235 242 249 256 260 259 258 261 267 271 273 276 281 284 281 275 274 273 272 272 272 271 271 270 270 270 267 266 269 272 272 270 267 267 269 270 272 276 281 285 291 297
178 164 148 140 136 131 126 123 122 124 122 118 119 121 133 172 213 232 244 251 253 257 258 255 253 249 243 240 241 238 236 236 235 235 236 233 227 220 214 213 217 222 227 235 244 254 261 263 261 260 263 267 271 275 276 276 279 280 277 276 275 273 273 273 274 276 278 279 280 278 278 279 276 270 265 264 267 268 267 267 273 280 287 294 299
132 130 127 126 127 125 122 120 121 123 124 127 129 124 127 140 171 220 244 254 260 263 260 256 255 247 241 241 242 239 236 235 237 239 237 230 223 218 213 213 218 223 230 240 250 259 264 265 264 263 264 267 271 274 274 272 274 275 276 276 274 273 275 277 280 281 282 282 284 286 290 292 278 263 260 263 267 266 262 264 272 281 289 295 297
126 126 126 126 126 125 124 125 128 132 135 139 142 141 146 155 167 208 255 262 261 261 255 253 251 245 242 244 244 240 235 233 238 243 236 227 221 216 212 213 218 226 235 245 255 264 268 267 265 262 263 266 267 268 268 268 269 270 271 271 270 271 273 276 279 281 281 282 284 287 291 292 276 262 262 266 266 262 259 264 274 284 291 293 294
123 125 127 128 127 128 131 136 141 145 145 145 146 148 152 154 149 139 133 255 258 257 255 253 250 247 245 243 243 242 234 228 234 241 232 223 219 215 211 213 220 229 239 247 258 269 272 266 259 257 259 261 263 265 267 267 268 269 270 270 270 270 270 271 275 278 279 281 285 285 286 286 277 269 267 267 264 261 261 267 277 286 291 293 295
118 119 122 126 128 129 132 137 141 144 143 142 141 141 141 135 121 110 234 277 272 261 256 254 250 248 247 242 242 242 232 225 232 236 223 215 213 209 207 210 218 227 237 249 263 272 267 257 252 254 259 262 266 270 271 272 275 276 276 275 272 271 272 273 275 277 278 281 285 286 286 283 277 272 269 267 265 263 264 270 279 287 292 294 296
107 105 107 113 118 119 120 123 123 121 122 122 121 131 140 138 132 161 241 265 270 261 254 250 246 245 246 244 243 239 229 226 232 226 213 207 205 203 205 209 217 229 243 257 269 271 260 253 253 257 262 267 269 272 276 280 284 284 284 282 279 279 279 276 274 274 275 279 283 286 286 283 276 271 269 267 264 264 268 278 285 290 293 296 296
99 100 101 106 110 110 111 112 110 110 116 121 132 153 163 168 182 215 240 252 261 262 257 250 244 242 241 241 241 236 229 229 228 217 211 209 203 201 206 213 223 237 249 262 273 271 259 253 255 259 263 269 273 278 284 288 290 290 290 289 287 286 283 280 279 279 280 282 281 279 278 275 270 268 268 269 270 271 277 284 288 291 294 295 295
96 99 102 107 108 108 111 113 112 118 135 150 164 174 181 192 209 231 243 243 251 263 263 252 242 239 238 236 235 232 229 228 223 214 213 212 206 205 211 220 230 242 253 263 268 264 256 254 260 266 271 275 280 285 290 291 290 290 291 290 290 290 288 286 285 283 281 280 277 272 269 267 266 269 273 279 283 286 288 290 290 291 292 295 299
92 95 100 106 108 116 137 147 157 178 190 190 188 187 192 203 217 233 238 235 241 251 250 239 232 231 230 228 227 226 223 220 216 211 210 212 215 217 221 226 234 244 252 256 256 254 253 258 264 269 273 278 283 288 289 290 290 292 293 294 294 292 291 288 285 282 278 273 269 265 263 264 268 276 283 288 290 291 293 295 293 291 293 299 304
101 106 112 118 130 163 183 189 196 201 199 195 193 195 203 211 218 228 233 229 226 224 219 217 219 219 220 220 219 219 215 209 206 205 202 204 210 216 221 227 235 241 243 242 242 251 259 262 264 268 273 279 283 286 288 290 292 293 294 295 294 292 290 288 283 277 274 269 265 264 266 270 278 285 288 289 291 294 299 300 300 302 304 305 306
109 115 121 126 142 165 179 190 197 198 196 196 196 201 210 216 217 224 226 218 212 207 198 196 201 205 207 208 207 207 208 205 201 197 193 195 204 213 223 229 230 228 226 230 244 257 260 260 265 270 275 280 283 285 288 289 288 290 291 292 291 289 288 284 277 272 270 267 268 275 280 284 290 293 292 291 295 300 307 310 310 309 307 306 307
111 118 128 139 153 165 177 187 191 190 188 191 196 207 221 229 229 224 218 210 207 202 191 183 182 183 186 194 203 208 211 209 203 198 197 201 206 212 217 218 216 217 228 244 254 256 256 260 267 273 277 280 282 284 285 284 285 288 291 292 293 290 286 280 272 268 267 265 271 280 284 288 294 294 286 284 290 297 305 309 308 308 306 306 307
109 119 131 142 155 163 169 174 175 173 173 174 178 204 235 249 241 226 216 209 203 196 185 177 175 176 182 193 206 213 209 199 194 196 198 197 194 193 195 201 217 236 246 248 248 250 256 265 272 276 278 280 281 282 282 283 287 293 296 298 297 292 286 280 273 268 265 264 269 275 279 286 291 282 264 272 284 289 294 299 303 306 306 305 305